sat.trackr.live / text

‹ back to catalog

STARLINK-31711

NORAD 59438 · 2024-065T

PAYLOAD ACTIVE UNKNOWN

§ Identity

Operator
Country
US
Launch date
2024-04-07
Launch site
AFWTR
Launch vehicle
Mass (kg)
RCS (m²)

Purposes: comms

External: N2YO · Heavens-Above · Gunter

§ Orbital elements

Epoch: 2026-09-21T21:19:57.039168Z

Period
93.85 min
Inclination
53.1610°
Eccentricity
0.0001225
Mean motion
15.34405927 rev/d
Perigee alt
461.8 km
Apogee alt
463.5 km
Semi-major
6,840.8 km
B*
9.1714e-5
RAAN
87.1363°
Arg perigee
84.1304°
Mean anomaly
275.9838°
Rev number
13,901

§ Raw data

STARLINK-317111 59438U 24065T   26264.88885462  .00002724  00000+0  91714-4 0  99952 59438  53.1610  87.1363 0001225  84.1304 275.9838 15.34405927139011

JSON: /api/v1/satellites/59438 · /tle

For live sub-satellite position, see the globe view (requires WebGL).

§ Visibility from observer

Set your observer location to see the next 7 days of passes ≥ 10°. The values pass through the URL so the page stays shareable.

No JS? Fill the form by hand. The geolocation button needs JavaScript.